Orbital Elements at Epoch 2459000.5 (2020-May-31.0) TDB
Reference: JPL 14 (heliocentric ecliptic J2000)
Element | Value | Uncertainty (1-sigma) | Units |
e | .2488457859298113 | 6.1856e-08 | |
a | 2.607036549633512 | 1.2609e-08 | au |
q | 1.958286490492217 | 1.5773e-07 | au |
i | 12.35556081234907 | 6.0228e-06 | deg |
node | 51.12373101202067 | 2.4391e-05 | deg |
peri | 293.139277177289 | 2.7409e-05 | deg |
M | 177.122661694689 | 1.6162e-05 | deg |
tp | 2458244.031696056144 (2018-May-05.53169606) | 6.566e-05 | TDB |
period | 1537.51409793744 4.21 | 1.1155e-05 3.054e-08 | d yr |
n | .2341441945039311 | 1.6987e-09 | deg/d |
Q | 3.255786608774807 | 1.5747e-08 | au |
|
| | Orbit Determination Parameters
Additional Information
|